This is the latest recevied weather packets stored in our database for station/object HJ3GNC-11. If no packets are shown the sender has not sent any weather packets the latest 10 day(s).
| Time | Temp. | Humidity | Pressure | Rain* | Wind** | Luminosity | Snow |
|---|---|---|---|---|---|---|---|
| 1777851518 | 13.33° C | 86% | 1016 hPa | 0 mm | - | - | - |
| 1777850568 | 15° C | 81% | 1015 hPa | 0 mm | - | - | - |
| 1777849622 | 15° C | 80% | 1015 hPa | 0 mm | - | - | - |
| 1777848664 | 15° C | 81% | 1015 hPa | 0 mm | - | - | - |
| 1777847721 | 16.11° C | 79% | 1014 hPa | 0 mm | - | - | - |
| 1777846773 | 15° C | 79% | 1013 hPa | 0 mm | - | - | - |
| 1777845827 | 17.78° C | 79% | 1013 hPa | 0 mm | - | - | - |
| 1777844888 | 16.67° C | 79% | 1013 hPa | 0 mm | - | - | - |
| 1777843934 | 15.56° C | 79% | 1013 hPa | 0 mm | - | - | - |
| 1777841776 | 18.89° C | 80% | 1013 hPa | 0 mm | - | - | - |
| 1777840826 | 17.78° C | 80% | 1013 hPa | 0 mm | - | - | - |
| 1777839853 | 16.67° C | 80% | 1013 hPa | 0 mm | - | - | - |
| 1777838892 | 15.56° C | 80% | 1013 hPa | 0 mm | - | - | - |
| 1777837908 | 18.89° C | 81% | 1013 hPa | 0 mm | - | - | - |
| 1777836952 | 17.78° C | 81% | 1013 hPa | 0 mm | - | - | - |
| 1777835984 | 16.67° C | 81% | 1013 hPa | 0 mm | - | - | - |
| 1777835026 | 15.56° C | 81% | 1013 hPa | 0 mm | - | - | - |
| 1777834079 | 20° C | 84% | 1013 hPa | 0 mm | - | - | - |
| 1777833125 | 18.89° C | 84% | 1013 hPa | 0 mm | - | - | - |
| 1777832181 | 17.78° C | 84% | 1014 hPa | 0 mm | - | - | - |
| 1777831238 | 16.67° C | 84% | 1014 hPa | 0 mm | - | - | - |
| 1777830294 | 15.56° C | 84% | 1014 hPa | 0 mm | - | - | - |
| 1777829346 | 14.44° C | 84% | 1015 hPa | 0 mm | - | - | - |
| 1777828367 | 19.44° C | 90% | 1015 hPa | 0 mm | - | - | - |
| 1777827401 | 18.33° C | 90% | 1015 hPa | 0 mm | - | - | - |
* Rain latest hour (hover to see other rain measurements)
** Current wind speed in m/s (hover to see current wind gust speed)